This demonstration page uses our WeatherBlox Daily Observations layout. Learn more.

Left ArrowRight Arrow

39.51506, -84.39828

Hourly Observations for September 15, 2020

Temp ( °F °C ) Dew Point ( °F °C ) Humidity (%) Winds ( mph kmh ) Pressure ( in mb ) Visibility ( mi km ) Precip ( " mm )
12:15 am 00:15 Clear 60 15.8 55 12.9 83 83 NE 12 19 30.33 1027 10 16.0934 0 0
12:35 am 00:35 Clear 60 15.5 55 12.8 84 84 NE 9 15 30.34 1027 10 16.0934 0 0
12:55 am 00:55 Clear 60 15.3 55 12.7 85 85 NE 10 17 30.34 1027 10 16.0934 0 0
1:15 am 01:15 Clear 59 15.1 55 12.6 85 85 NE 8 13 30.34 1027 10 16.0934 0 0
1:35 am 01:35 Clear 58 14.7 55 12.5 87 87 NE 10 17 30.34 1027 10 16.0934 0 0
1:55 am 01:55 Clear 58 14.4 54 12.3 87 87 NE 7 11 30.34 1027 10 16.0934 0 0
2:15 am 02:15 Clear 56 13.6 53 11.9 90 90 NNE 5 7 30.35 1028 10 16.0934 0 0
2:35 am 02:35 Clear 56 13.6 54 12 90 90 NE 5 7 30.35 1028 10 16.0934 0 0
2:55 am 02:55 Clear 55 13 53 11.6 91 91 Calm 30.35 1028 10 16.0934 0 0
3:15 am 03:15 Clear 54 12.1 52 11.3 95 95 Calm 30.34 1028 10 16.0934 0 0
3:35 am 03:35 Clear 53 11.7 53 11.4 98 98 Calm 30.34 1028 10 16.0934 0 0
3:55 am 03:55 Clear 53 11.6 52 11.3 98 98 Calm 30.35 1028 10 16.0934 0 0
4:15 am 04:15 Clear 53 11.8 52 11.3 97 97 Calm 30.34 1028 10 16.0934 0 0
4:35 am 04:35 Clear 52 11.1 51 10.5 96 96 Calm 30.36 1028 10 16.0934 0 0
4:55 am 04:55 Clear 52 11.2 51 10.6 96 96 Calm 30.35 1028 10 16.0934 0 0
5:15 am 05:15 Clear 50 10 50 9.8 99 99 Calm 30.35 1028 10 16.0934 0 0
5:35 am 05:35 Clear 49 9.6 49 9.5 99 99 Calm 30.35 1028 10 16.0934 0 0
5:55 am 05:55 Clear 50 10 49 9.7 98 98 N 3 6 30.35 1028 10 16.0934 0 0
6:15 am 06:15 Clear 49 9.6 49 9.2 97 97 Calm 30.34 1027 10 16.0934 0 0
6:35 am 06:35 Clear 50 9.8 49 9.3 97 97 N 3 6 30.34 1027 10 16.0934 0 0
6:55 am 06:55 Clear 50 9.8 49 9.3 97 97 Calm 30.34 1027 10 16.0934 0 0
7:15 am 07:15 Clear 50 9.9 49 9.3 96 96 Calm 30.35 1028 10 16.0934 0 0
7:35 am 07:35 Sunny 49 9.7 48 9.1 96 96 N 5 7 30.34 1027 10 16.0934 0 0
7:55 am 07:55 Sunny 49 9.6 48 9.1 97 97 N 3 6 30.35 1028 10 16.0934 0 0
8:15 am 08:15 Sunny 50 10.1 49 9.5 96 96 NNE 3 6 30.35 1028 10 16.0934 0 0
8:35 am 08:35 Sunny 52 11 50 10.1 94 94 Calm 30.35 1028 10 16.0934 0 0
8:55 am 08:55 Sunny 53 11.7 50 10.1 90 90 ENE 3 6 30.34 1028 10 16.0934 0 0
9:15 am 09:15 Sunny 54 12.2 51 10.5 89 89 NE 3 6 30.34 1028 10 16.0934 0 0
9:35 am 09:35 Sunny 56 13.1 51 10.8 86 86 NE 7 11 30.33 1027 10 16.0934 0 0
9:55 am 09:55 Sunny 57 13.8 51 10.6 81 81 ENE 6 9 30.33 1027 10 16.0934 0 0
10:15 am 10:15 Sunny 59 14.8 51 10.6 76 76 ENE 6 9 30.33 1027 10 16.0934 0 0
10:35 am 10:35 Sunny 60 15.5 51 10.7 73 73 NE 3 6 30.33 1027 10 16.0934 0 0
10:55 am 10:55 Sunny 61 16.3 51 10.5 69 69 ENE 6 9 30.32 1027 10 16.0934 0 0
11:15 am 11:15 Sunny 63 17.2 50 10.2 64 64 NE 5 7 30.32 1027 10 16.0934 0 0
11:35 am 11:35 Sunny 65 18.1 51 10.4 61 61 ENE 6 9 30.31 1026 10 16.0934 0 0
11:55 am 11:55 Sunny 66 18.8 50 9.9 56 56 ENE 6 9 30.31 1026 10 16.0934 0 0
12:15 pm 12:15 Sunny 66 19.1 49 9.7 55 55 NE 9 15 30.3 1026 10 16.0934 0 0
12:35 pm 12:35 Sunny 67 19.6 49 9.2 51 51 ESE 5 7 30.29 1026 10 16.0934 0 0
12:55 pm 12:55 Sunny 67 19.6 48 9 51 51 E 10 17 30.28 1025 10 16.0934 0 0
1:15 pm 13:15 Sunny 68 19.9 50 10 53 53 ENE 9 15 30.27 1025 10 16.0934 0 0
1:35 pm 13:35 Sunny 69 20.5 50 9.8 50 50 E 8 13 30.26 1025 10 16.0934 0 0
1:55 pm 13:55 Sunny 69 20.7 49 9.3 48 48 Calm 30.25 1024 10 16.0934 0 0
2:15 pm 14:15 Sunny 70 21.3 49 9.6 47 47 SE 8 13 30.24 1024 10 16.0934 0 0
2:35 pm 14:35 Sunny 71 21.9 48 9.1 44 44 ESE 7 11 30.23 1024 10 16.0934 0 0
2:55 pm 14:55 Sunny 72 22 49 9.3 44 44 E 7 11 30.22 1023 10 16.0934 0 0
3:15 pm 15:15 Sunny 71 21.8 48 8.8 44 44 NNE 5 7 30.22 1023 10 16.0934 0 0
3:35 pm 15:35 Sunny 72 22.2 49 9.5 45 45 NNE 6 9 30.21 1023 10 16.0934 0 0
3:55 pm 15:55 Sunny 73 22.7 49 9.2 42 42 E 5 7 30.2 1023 10 16.0934 0 0
4:15 pm 16:15 Sunny 73 22.9 49 9.7 43 43 SE 5 7 30.2 1023 10 16.0934 0 0
4:35 pm 16:35 Sunny 73 22.7 49 9.4 43 43 ESE 5 7 30.19 1022 10 16.0934 0 0
4:55 pm 16:55 Sunny 73 22.8 49 9.5 43 43 NE 5 7 30.19 1022 10 16.0934 0 0
5:15 pm 17:15 Sunny 73 22.6 49 9.2 43 43 ENE 5 7 30.18 1022 10 16.0934 0 0
5:35 pm 17:35 Sunny 73 22.7 49 9.3 43 43 ENE 6 9 30.17 1022 10 16.0934 0 0
5:55 pm 17:55 Sunny 73 22.5 48 9 42 42 NE 5 7 30.17 1022 10 16.0934 0 0
6:15 pm 18:15 Sunny 72 22.3 50 9.9 45 45 E 6 9 30.17 1022 10 16.0934 0 0
6:35 pm 18:35 Sunny 72 22 49 9.5 45 45 E 5 7 30.17 1022 10 16.0934 0 0
6:55 pm 18:55 Sunny 70 21.3 50 10.1 49 49 E 5 7 30.17 1022 10 16.0934 0 0
7:15 pm 19:15 Sunny 69 20.4 50 10 51 51 E 3 6 30.17 1022 10 16.0934 0 0
7:35 pm 19:35 Sunny 67 19.6 50 10.1 54 54 E 3 6 30.18 1022 10 16.0934 0 0
7:55 pm 19:55 Clear 63 17.4 51 10.4 64 64 Calm 30.18 1022 10 16.0934 0 0
8:15 pm 20:15 Clear 58 14.6 54 12.3 86 86 Calm 30.2 1023 10 16.0934 0 0
8:35 pm 20:35 Clear 58 14.6 54 12.4 87 87 Calm 30.19 1022 10 16.0934 0 0
8:55 pm 20:55 Clear 55 12.9 54 12 94 94 Calm 30.19 1022 10 16.0934 0 0
9:15 pm 21:15 Clear 55 13 54 12.1 94 94 Calm 30.2 1023 10 16.0934 0 0
9:35 pm 21:35 Clear 54 12.2 52 11.3 94 94 Calm 30.2 1023 10 16.0934 0 0
9:55 pm 21:55 Clear 55 12.6 53 11.8 95 95 Calm 30.21 1023 10 16.0934 0 0
10:15 pm 22:15 Clear 54 12 53 11.5 97 97 Calm 30.21 1023 10 16.0934 0 0
10:35 pm 22:35 Clear 53 11.7 52 11.1 96 96 Calm 30.2 1023 10 16.0934 0 0
10:55 pm 22:55 Clear 53 11.5 52 11.3 99 99 Calm 30.21 1023 10 16.0934 0 0
11:15 pm 23:15 Clear 52 11.1 52 11 99 99 Calm 30.2 1023 10 16.0934 0 0
11:35 pm 23:35 Clear with Mist and Fog 51 10.6 51 10.6 100 100 Calm 30.2 1023 5 8.0467 0 0
11:55 pm 23:55 Hazy 52 11 N/A N/A Calm 30.2 1023 5 8.0467 0 0

Powered by AerisWeather